RH
36 34 35 35 27 30 32 38 34 31 27 53 97 99 97 96 95 96 98 99 99 100 99 98 99 99 99
45 46 52 47 53 54 53 46 37 26 26 65 98 97 100 100 100 99 98 100 100 100 100 100 99 99 99
60 60 69 72 72 70 61 49 41 36 52 58 55 59 96 100 100 100 100 100 100 100 100 100 100 100 100
65 83 92 82 78 74 75 64 61 56 54 63 63 63 63 60 66 60 60 64 97 100 100 100 100 100 100
94 96 88 85 85 77 76 75 78 65 62 71 72 64 56 56 59 59 59 60 100 100 100 100 99 100 100
96 95 89 89 81 79 89 95 100 82 71 68 66 59 59 61 60 59 59 89 100 100 100 100 100 100 100
94 91 90 79 90 94 98 100 100 76 75 70 72 64 61 62 59 58 57 64 94 100 100 100 100 99 98
84 86 95 94 96 100 100 87 83 79 82 77 76 72 68 64 58 58 60 63 67 95 100 100 100 100 100
74 80 82 83 81 81 79 89 84 82 85 84 77 82 74 67 62 63 67 70 77 78 82 95 100 100 98
69 70 68 70 74 81 86 92 97 99 93 96 94 94 98 91 78 74 68 67 70 70 70 72 82 100 100
72 69 68 69 73 77 81 89 94 96 77 99 96 95 100 99 88 73 70 69 70 65 65 68 72 84 100
74 71 75 75 77 80 84 88 91 89 82 95 96 96 98 94 93 76 73 74 71 65 66 66 70 73 86
75 76 82 86 85 83 80 81 82 78 80 84 93 95 98 98 100 92 88 72 69 71 73 72 74 75 75
85 85 86 88 85 90 88 89 87 73 73 80 85 94 97 97 100 89 73 94 73 72 75 78 81 84 83
90 91 91 91 88 89 91 92 96 88 79 74 82 90 92 91 85 74 74 74 72 76 87 90 81 87 92
92 95 96 95 93 90 96 97 94 88 84 82 87 88 81 81 87 82 75 80 75 86 97 100 98 88 88
93 96 97 97 98 93 92 95 92 89 86 87 94 98 97 100 77 96 96 93 96 93 91 94 97 81 83
Wind_Speed
29 29 31 32 34 33 33 33 33 32 30 28 26 26 27 29 29 29 30 30 30 30 31 31 32 33 33
31 31 31 32 33 35 33 34 34 31 29 27 26 26 26 27 27 27 27 29 31 32 33 33 32 33 32
32 32 32 33 35 36 38 37 34 30 27 28 26 24 24 23 26 29 31 31 32 32 32 32 32 32 32
31 31 32 34 35 39 41 38 34 29 29 27 22 25 30 30 29 30 30 31 30 30 31 31 31 31 31
29 31 34 35 37 38 38 35 35 34 32 30 35 36 34 34 33 31 29 29 27 28 30 32 33 34 33
28 31 34 37 36 33 32 35 37 32 38 42 37 39 38 35 31 30 31 30 30 30 31 32 32 33 32
29 31 34 33 29 31 31 35 36 39 36 46 42 42 34 35 31 31 28 25 26 26 27 28 29 29 30
29 29 27 27 28 31 35 38 38 36 32 45 40 39 39 38 32 25 23 22 24 24 25 27 30 32 33
24 24 25 26 26 29 31 32 40 41 36 28 38 41 43 41 32 30 32 30 29 30 30 30 31 32 33
24 24 23 23 23 23 27 32 34 38 24 33 39 35 32 35 35 39 37 34 32 30 29 29 29 31 34
23 24 23 23 23 24 25 28 32 35 35 30 39 39 35 43 45 43 41 38 36 34 32 29 27 27 31
24 24 25 26 23 25 25 26 28 32 35 31 34 35 36 41 45 45 42 41 39 37 28 22 22 23 25
23 24 25 25 27 28 28 29 30 29 29 27 29 30 31 37 43 45 45 43 33 31 32 30 29 28 30
23 22 24 28 30 29 30 30 33 32 25 25 27 29 33 35 38 42 39 39 36 32 33 34 33 32 30
20 23 27 30 30 29 30 31 32 35 35 29 27 30 32 32 35 37 36 36 36 37 37 38 34 32 31
19 24 28 30 32 32 32 32 33 33 35 34 35 36 36 37 29 29 36 37 38 38 37 38 42 36 34
21 24 28 31 32 32 33 34 35 35 36 37 37 36 36 38 41 27 30 41 37 35 33 33 37 36 32
Wind_Direction
297 300 300 303 305 307 309 311 311 308 305 301 298 296 292 288 287 286 284 284 282 280 280 278 278 276 277
300 304 305 309 312 312 314 313 311 312 308 305 299 296 294 291 289 287 287 284 280 281 279 277 277 275 276
302 307 309 312 314 314 315 318 319 318 312 311 310 304 297 296 292 288 285 281 279 279 277 274 274 275 275
303 307 307 311 312 316 319 318 317 317 316 316 314 313 310 305 302 301 293 288 283 279 276 276 276 274 274
300 301 305 311 314 315 313 317 317 321 322 321 315 317 316 312 309 301 297 295 287 282 278 275 273 274 273
299 301 305 309 311 312 314 315 314 321 320 312 314 313 316 313 310 305 305 294 286 281 279 276 275 272 270
293 300 303 308 313 312 312 308 303 311 315 309 312 311 316 309 309 308 307 297 289 283 280 278 277 275 271
301 302 305 310 308 303 299 301 302 307 313 305 311 313 315 312 314 314 312 307 300 290 284 280 278 276 273
295 297 300 303 304 302 304 306 308 311 315 301 313 316 314 312 315 320 319 315 308 300 292 283 279 277 274
309 308 308 309 309 306 307 306 308 311 309 308 308 314 312 305 310 313 311 312 310 307 304 296 285 275 271
309 314 316 315 314 312 310 308 306 301 311 308 303 306 296 301 305 309 312 313 312 310 306 299 287 273 271
317 320 321 322 321 319 314 309 304 301 308 308 301 305 305 303 302 310 311 311 311 310 309 303 292 286 278
321 321 324 326 325 323 318 316 310 309 310 313 310 310 304 301 302 305 308 311 310 309 310 306 300 293 286
322 326 329 331 332 333 329 328 321 324 325 324 321 316 309 306 306 305 310 301 312 312 310 305 301 296 290
328 333 335 336 337 337 335 332 326 327 328 331 328 322 317 314 310 310 312 312 315 315 312 308 304 302 295
334 336 338 339 338 341 338 333 329 331 330 335 335 331 329 321 314 311 316 311 317 316 311 303 302 303 298
336 340 340 339 340 339 339 338 334 332 333 336 336 331 314 307 324 310 294 306 309 305 308 301 298 300 303